Location: Gollag?dem
(16.8053°N, 80.8024°E)
Time: 17:09:34
(UTC+00:00)

CSL-04 Rocket - Pass Details

Date: 13 August 2020
Orbit: 807 x 859 km, 98.9° (Epoch: 18 September)

Event Time Altitude Azimuth Distance (km) Brightness Sun altitude
Rises 13:21:16 0° 150° (SSE) 3,335 6.4 -5.0°
Reaches altitude 10° 13:23:44 10° 143° (SE) 2,397 5.6 -5.6°
Maximum altitude 13:28:39 40° 75° (ENE) 1,172 4.1 -6.7°
Drops below altitude 10° 13:33:32 10° 6° (N) 2,385 6.2 -7.8°
Sets 13:35:59 0° 359° (N) 3,315 7.0 -8.4°
